[[{"header":{"parameterUnit":"m.s-1","parameterCategory":1,"la1":30.2991,"la2":30.254,"lo1":-89.0895,"lo2":-89.0444,"dy":0.0017,"dx":0.0017,"nx":28,"ny":28,"refTime":"2024-03-12T21:00:00:Z","depth":0,"parameterNumber":2,"parameterNumberName":"U-component_of_WINDS"},"data":[0,0,0,0,0,0,0,0,0,0,0,0,0,0,0,0,0,0,0,0,0,0,0,0,0,0,0,0,0,0,0,0,0,0,0,0,0,0,0,0,0,0,0,0,0,0,0,0,0,0,0,0,0,0,0,0,0,0,-0.6339,-0.6338,0,-0.6328,-0.6328,-0.6328,-0.6304,-0.6304,-0.6303,-0.6303,-0.6293,-0.6293,-0.6293,0,0,0,0,0,0,0,0,0,0,0,0,0,-0.634,-0.634,-0.6339,-0.6338,-0.6338,-0.6328,-0.6328,-0.6328,-0.6304,-0.6304,-0.6303,-0.6303,-0.6293,-0.6293,-0.6293,0,0,0,0,0,0,0,0,0,0,0,0,0,-0.6335,-0.634,-0.6339,-0.6325,-0.6324,-0.6328,-0.6328,-0.6328,-0.6304,-0.6304,-0.6303,-0.6302,-0.6293,-0.6293,-0.6293,-0.631,0,0,-0.6294,-0.6294,0,0,0,0,0,0,0,0,-0.6335,-0.6335,-0.6327,-0.6326,-0.6325,-0.6317,-0.6325,-0.6322,-0.6305,-0.6312,-0.6303,-0.6302,-0.6301,-0.6301,-0.6301,-0.6309,-0.6309,-0.6294,-0.6294,-0.6294,-0.6294,0,0,0,0,0,0,0,-0.6336,-0.6335,-0.6334,-0.6327,-0.6326,-0.632,-0.6319,-0.6324,-0.6311,-0.6311,-0.6309,-0.6309,-0.6301,-0.63,-0.63,-0.6309,-0.6294,-0.6294,-0.6295,-0.6295,-0.6331,-0.6332,0,0,0,0,0,0,-0.6338,-0.6336,-0.6335,-0.6334,-0.6328,-0.6321,-0.6319,-0.632,-0.6311,-0.6309,-0.6309,-0.6307,-0.63,-0.63,-0.63,-0.6319,-0.6294,-0.6295,-0.6295,-0.6331,-0.6332,-0.6332,0,0,0,0,0,0,-0.6338,-0.6338,-0.6335,-0.6335,-0.6334,-0.6322,-0.6323,-0.632,-0.632,-0.6309,-0.6307,-0.6311,-0.63,-0.6299,-0.6308,-0.6319,-0.6295,-0.6295,-0.633,-0.6331,-0.6332,-0.6358,0,0,0,0,0,0,-0.6338,-0.6338,-0.6344,-0.6335,-0.6334,-0.6343,-0.6323,-0.6321,-0.6321,-0.6318,-0.6311,-0.6309,-0.6299,-0.6307,-0.6308,-0.6318,-0.6295,-0.6329,-0.633,-0.6332,-0.6356,-0.636,-0.6363,0,0,0,0,0,-0.6338,-0.6351,-0.6344,-0.6344,-0.6341,-0.6344,-0.6343,-0.6332,-0.6321,-0.6328,-0.6321,-0.6309,-0.6317,-0.6308,-0.6309,-0.632,-0.6328,-0.633,-0.6331,-0.6354,-0.6359,-0.6363,0,0,0,0,0,0,-0.6362,-0.635,-0.6342,-0.6353,-0.6349,-0.634,-0.6347,-0.6337,-0.6336,-0.6334,-0.632,-0.6319,-0.6329,-0.6325,-0.6315,-0.6336,-0.6321,-0.6323,-0.6338,-0.6342,-0.6346,-0.6347,-0.6295,0,0,0,0,0,-0.6369,-0.6372,-0.6361,-0.6371,-0.637,-0.6359,-0.636,-0.6351,-0.6347,-0.6346,-0.6339,-0.6336,-0.6338,-0.634,-0.6341,-0.6355,-0.6354,-0.6363,-0.6367,-0.6369,-0.6372,-0.638,-0.6384,-0.6338,-0.6338,-0.6338,0,0,-0.6382,-0.6376,-0.6379,-0.6376,-0.6373,-0.6377,-0.6358,-0.6363,-0.6366,-0.6347,-0.6354,-0.635,-0.6345,-0.6357,-0.6362,-0.6354,-0.6384,-0.6372,-0.6374,-0.6375,-0.6382,-0.6386,-0.639,-0.634,-0.6339,-0.6339,0,0,-0.6409,-0.6404,-0.6413,-0.641,-0.6405,-0.6397,-0.64,-0.6391,-0.6388,-0.6395,-0.6381,-0.6385,-0.6388,-0.6386,-0.6385,-0.6412,-0.6402,-0.6413,-0.6432,-0.644,-0.6444,-0.6447,-0.6457,-0.6461,-0.6415,-0.6415,-0.6415,0,-0.6427,-0.6432,-0.6419,-0.6425,-0.6425,-0.6407,-0.6417,-0.6414,-0.641,-0.6411,-0.6402,-0.6406,-0.6402,-0.6414,-0.642,-0.642,-0.6423,-0.6414,-0.6444,-0.6447,-0.645,-0.646,-0.6464,-0.6417,-0.6416,-0.6416,-0.6416,0,-0.6454,-0.6458,-0.6466,-0.6462,-0.6463,-0.647,-0.6459,-0.6461,-0.6453,-0.6447,-0.6455,-0.6449,-0.6449,-0.6451,-0.6443,-0.6462,-0.6457,-0.6447,-0.6431,-0.6456,-0.6465,-0.6469,-0.6419,-0.6418,-0.6418,-0.6417,0,0,-0.6496,-0.6486,-0.6489,-0.6487,-0.6481,-0.6484,-0.6491,-0.6491,-0.6494,-0.6491,-0.6498,-0.6501,-0.6491,-0.6491,-0.6482,-0.6489,-0.6512,-0.6478,-0.6477,-0.6485,-0.6534,-0.6543,-0.6547,-0.6505,-0.6506,-0.6506,-0.6535,0,-0.6522,-0.6534,-0.6523,-0.6536,-0.654,-0.6524,-0.6531,-0.6528,-0.6522,-0.6525,-0.6519,-0.6522,-0.6508,-0.6508,-0.6514,-0.6508,-0.6522,-0.6506,-0.6512,-0.6512,-0.6514,-0.6552,-0.6561,-0.6588,-0.6538,-0.6539,-0.6539,0,-0.6554,-0.6554,-0.6568,-0.6561,-0.6562,-0.6568,-0.6568,-0.6571,-0.6567,-0.6563,-0.6563,-0.6552,-0.6559,-0.6544,-0.6554,-0.6544,-0.6545,-0.6543,-0.6543,-0.6544,-0.6528,-0.6555,-0.6596,-0.6601,-0.6544,-0.6544,-0.6544,0,-0.6585,-0.6587,-0.6597,-0.6596,-0.6588,-0.6592,-0.6589,-0.6585,-0.6586,-0.6586,-0.6587,-0.6588,-0.6588,-0.6589,-0.658,-0.6569,-0.6592,-0.6575,-0.6589,-0.6589,-0.6595,-0.6595,-0.6638,-0.6594,-0.6594,-0.6594,-0.6594,0,-0.6616,-0.6625,-0.661,-0.6616,-0.6627,-0.6614,-0.6625,-0.662,-0.6617,-0.6622,-0.6608,-0.6613,-0.66,-0.6604,-0.6596,-0.6606,-0.6606,-0.6603,-0.6602,-0.6605,-0.6606,-0.6607,-0.6605,-0.6595,-0.6595,-0.6595,-0.6595,0,-0.6652,-0.6642,-0.6651,-0.6643,-0.6641,-0.6649,-0.6643,-0.6648,-0.6642,-0.6648,-0.6649,-0.6639,-0.6643,-0.6633,-0.6636,-0.6631,-0.6646,-0.664,-0.6647,-0.6646,-0.666,-0.6659,-0.6707,-0.6713,-0.6664,-0.6665,-0.6665,0,-0.6673,-0.668,-0.6672,-0.6675,-0.6673,-0.6676,-0.6677,-0.6665,-0.6667,-0.6664,-0.667,-0.6673,-0.6675,-0.6682,-0.6675,-0.6677,-0.6672,-0.6689,-0.6672,-0.6676,-0.6674,-0.6674,-0.6675,-0.6692,-0.6693,-0.6693,-0.6694,0,-0.6711,-0.6706,-0.6708,-0.6709,-0.671,-0.671,-0.6709,-0.6712,-0.6699,-0.6702,-0.6706,-0.6707,-0.671,-0.6713,-0.6714,-0.6711,-0.6701,-0.6699,-0.6702,-0.6707,-0.6711,-0.671,-0.6657,-0.6698,-0.6697,-0.6697,-0.6697,-0.6697,-0.6741,-0.6747,-0.6743,-0.6746,-0.6744,-0.6743,-0.6748,-0.6742,-0.6745,-0.6747,-0.6739,-0.6745,-0.6742,-0.6742,-0.674,-0.6745,-0.6738,-0.6742,-0.6744,-0.6745,-0.6748,-0.6709,-0.6745,-0.6745,-0.6745,-0.6744,-0.6744,0,-0.678,-0.6776,-0.6779,-0.6778,-0.6781,-0.677,-0.6769,-0.6772,-0.6777,-0.6775,-0.6777,-0.6782,-0.6785,-0.6779,-0.6781,-0.6786,-0.6781,-0.6787,-0.6787,-0.6787,-0.6754,-0.6751,-0.6791,-0.6791,-0.6791,-0.6791,-0.6791,-0.6791,-0.68,-0.681,-0.6805,-0.6814,-0.681,-0.6816,-0.6816,-0.6816,-0.6814,-0.682,-0.6823,-0.6818,-0.6815,-0.6817,-0.682,-0.6818,-0.682,-0.6827,-0.6824,-0.6794,-0.6789,-0.6785,-0.6782,-0.6828,-0.6828,-0.6857,-0.6857,-0.6857]},{"header":{"parameterUnit":"m.s-1","parameterCategory":1,"la1":30.2991,"la2":30.254,"lo1":-89.0895,"lo2":-89.0444,"dy":0.0017,"dx":0.0017,"nx":28,"ny":28,"refTime":"2024-03-12T21:00:00:Z","depth":0,"parameterNumber":3,"parameterNumberName":"V-component_of_WINDS"},"data":[0,0,0,0,0,0,0,0,0,0,0,0,0,0,0,0,0,0,0,0,0,0,0,0,0,0,0,0,0,0,0,0,0,0,0,0,0,0,0,0,0,0,0,0,0,0,0,0,0,0,0,0,0,0,0,0,0,0,3.845,3.845,0,3.853,3.8531,3.8532,3.8502,3.85,3.8498,3.8496,3.8575,3.8579,3.8583,0,0,0,0,0,0,0,0,0,0,0,0,0,3.8266,3.827,3.8449,3.845,3.8452,3.853,3.8531,3.8532,3.8502,3.85,3.8498,3.8495,3.8574,3.8579,3.8583,0,0,0,0,0,0,0,0,0,0,0,0,0,3.8346,3.8271,3.8449,3.8446,3.8447,3.8529,3.8531,3.8532,3.8502,3.85,3.8497,3.8494,3.8573,3.8578,3.8584,3.8674,0,0,3.8601,3.8604,0,0,0,0,0,0,0,0,3.8342,3.8353,3.8446,3.8446,3.8447,3.8503,3.8495,3.8579,3.8503,3.8481,3.8496,3.8493,3.8553,3.856,3.8581,3.8677,3.8681,3.8602,3.8605,3.8608,3.8609,0,0,0,0,0,0,0,3.8336,3.8349,3.8481,3.8447,3.8448,3.8439,3.8448,3.8511,3.8531,3.8483,3.8481,3.8491,3.8553,3.8576,3.8583,3.8682,3.8601,3.8607,3.861,3.8612,3.8854,3.8857,0,0,0,0,0,0,3.8331,3.8345,3.8479,3.8484,3.8387,3.8445,3.8454,3.8488,3.8531,3.8535,3.8493,3.8489,3.8567,3.8576,3.8586,3.8693,3.8607,3.8613,3.8616,3.8851,3.8854,3.8858,0,0,0,0,0,0,3.8327,3.8343,3.8475,3.8414,3.843,3.8451,3.8489,3.8491,3.8514,3.8539,3.8542,3.8513,3.8566,3.8578,3.8652,3.8695,3.8615,3.8621,3.8847,3.8852,3.8856,3.8908,0,0,0,0,0,0,3.8322,3.8342,3.8377,3.8415,3.8433,3.8542,3.8492,3.8494,3.8524,3.8519,3.8558,3.8562,3.8564,3.8643,3.8657,3.8701,3.8625,3.8843,3.8849,3.8855,3.8902,3.8914,3.8923,0,0,0,0,0,3.8315,3.8388,3.8379,3.8395,3.8478,3.8544,3.8555,3.8557,3.8528,3.8562,3.8578,3.856,3.8688,3.8651,3.8667,3.8713,3.8841,3.8848,3.8854,3.8898,3.8911,3.8923,0,0,0,0,0,0,3.8354,3.8393,3.8383,3.8471,3.8505,3.8539,3.8583,3.8572,3.8614,3.8608,3.8608,3.8617,3.8694,3.8711,3.8669,3.8801,3.876,3.877,3.8787,3.8801,3.8811,3.8805,3.863,0,0,0,0,0,3.8373,3.8425,3.8455,3.853,3.8547,3.8562,3.8591,3.859,3.8625,3.8639,3.866,3.8693,3.874,3.8771,3.8817,3.8905,3.8912,3.8944,3.8954,3.8963,3.8971,3.9018,3.9032,3.888,3.888,3.888,0,0,3.8413,3.844,3.8473,3.8538,3.8564,3.8616,3.8575,3.8632,3.867,3.8647,3.8718,3.8735,3.8772,3.8853,3.889,3.887,3.9015,3.8971,3.8978,3.8982,3.9026,3.904,3.9053,3.8884,3.8883,3.8883,0,0,3.8511,3.8537,3.8602,3.8628,3.8669,3.8678,3.8693,3.873,3.874,3.8812,3.8796,3.884,3.8922,3.8949,3.8973,3.908,3.9065,3.9095,3.9149,3.9194,3.9206,3.9216,3.9253,3.9267,3.9103,3.9103,3.9103,0,3.8554,3.8633,3.8636,3.8694,3.8723,3.8705,3.8769,3.8795,3.8847,3.8867,3.8843,3.8945,3.8969,3.9055,3.9081,3.9102,3.9118,3.909,3.9204,3.9215,3.9225,3.926,3.9274,3.9107,3.9106,3.9106,3.9106,0,3.8684,3.8739,3.8786,3.8837,3.8871,3.8932,3.8942,3.8976,3.8972,3.8984,3.9056,3.9084,3.9133,3.9154,3.9151,3.924,3.9226,3.9204,3.9162,3.9242,3.9275,3.9289,3.9111,3.911,3.9109,3.9108,0,0,3.8809,3.8861,3.8878,3.8901,3.8943,3.8985,3.9044,3.9094,3.9122,3.9159,3.9207,3.9277,3.9256,3.9284,3.9283,3.9323,3.9404,3.9295,3.9296,3.9313,3.9502,3.9518,3.9534,3.9394,3.9397,3.9399,3.9499,0,3.891,3.9015,3.9019,3.9114,3.9164,3.9148,3.9199,3.923,3.9242,3.9285,3.9297,3.9346,3.9316,3.9332,3.9371,3.9386,3.9442,3.9379,3.9438,3.944,3.9429,3.9551,3.9569,3.9662,3.9512,3.9514,3.9516,0,3.9042,3.9083,3.9184,3.9218,3.9239,3.9285,3.933,3.9372,3.9406,3.9412,3.9442,3.9435,3.9494,3.945,3.953,3.9488,3.9512,3.9523,3.9526,3.9531,3.9482,3.9559,3.9692,3.9705,3.9536,3.9535,3.9533,0,3.9122,3.9202,3.9273,3.9293,3.9335,3.9367,3.9386,3.9417,3.9446,3.9485,3.9504,3.9549,3.9573,3.9607,3.9612,3.958,3.9692,3.9649,3.9697,3.9697,3.9721,3.9719,3.9859,3.9738,3.9738,3.9738,3.9738,0,3.9233,3.9295,3.9309,3.9352,3.942,3.9423,3.949,3.9506,3.9534,3.9579,3.9567,3.9609,3.9613,3.9656,3.966,3.9725,3.9736,3.9742,3.9742,3.9742,3.9742,3.9758,3.9751,3.9742,3.9741,3.974,3.9739,0,3.9334,3.9346,3.9421,3.9455,3.9465,3.9513,3.9541,3.9582,3.9592,3.9649,3.9663,3.9679,3.9729,3.9737,3.9796,3.9798,3.9875,3.9869,3.9864,3.9863,3.991,3.9905,4.0065,4.0085,3.9952,3.9953,3.9954,0,3.9404,3.9452,3.949,3.952,3.954,3.9588,3.9618,3.9622,3.9653,3.9695,3.973,3.9779,3.9818,3.9898,3.9914,3.9958,3.9952,4.0005,3.9959,3.9957,3.9952,3.9949,3.9953,4.0014,4.0015,4.0016,4.0017,0,3.9527,3.953,3.9574,3.962,3.9656,3.9692,3.9726,3.9751,3.9759,3.9794,3.9845,3.9876,3.9935,3.9983,4.0027,4.0044,4.0032,4.0032,4.0045,4.0046,4.004,4.0043,3.9888,4.0028,4.0027,4.0026,4.0026,4.0025,3.9614,3.9655,3.9688,3.9737,3.9763,3.9795,3.9834,3.985,3.9893,3.9942,3.9942,3.9998,4.0028,4.0086,4.0107,4.0149,4.0132,4.0152,4.0156,4.0161,4.0165,4.0034,4.0157,4.0157,4.0157,4.0156,4.0156,0,3.9736,3.9756,3.9801,3.9849,3.9887,3.9873,3.9909,3.9942,3.9991,4.0022,4.0061,4.0119,4.0165,4.0185,4.023,4.026,4.0255,4.0271,4.0269,4.0273,4.0178,4.0162,4.0274,4.0274,4.0274,4.0274,4.0274,4.0274,3.9803,3.9871,3.9878,3.9958,3.9978,4.0033,4.0055,4.0084,4.0108,4.0174,4.0212,4.0225,4.0251,4.0297,4.0338,4.0343,4.0359,4.0378,4.038,4.0291,4.0279,4.0268,4.0253,4.0382,4.0382,4.0471,4.0472,4.0472]}]]